| time (UTC) | temp F | wind direction | speed MPH | gust MPH | rain 1hr in | rain 24hr in | rain mn in | humidity % | barometer mb |
| 20260505024543 | 72 | 168 | 6.0 | 12.0 | 0.00 | 0.00 | 0.00 | 78 | 1009.7 |
| 20260505023041 | 72 | 188 | 7.0 | 12.0 | 0.00 | 0.00 | 0.00 | 77 | 1009.7 |
| 20260505021540 | 73 | 146 | 7.0 | 13.0 | 0.00 | 0.00 | 0.00 | 76 | 1009.7 |
| 20260505020039 | 73 | 129 | 6.0 | 12.0 | 0.00 | 0.00 | 0.00 | 75 | 1009.4 |
| 20260505014539 | 73 | 173 | 5.0 | 13.0 | 0.00 | 0.00 | 0.00 | 74 | 1009.4 |
| 20260505013038 | 74 | 194 | 5.0 | 12.0 | 0.00 | 0.00 | 0.00 | 72 | 1009.3 |
| 20260505011537 | 75 | 240 | 4.0 | 10.0 | 0.00 | 0.00 | 0.00 | 70 | 1009.3 |
| 20260505010036 | 75 | 166 | 7.0 | 13.0 | 0.00 | 0.00 | 0.00 | 68 | 1009.1 |
| 20260505004546 | 76 | 151 | 7.0 | 16.0 | 0.00 | 0.00 | 0.00 | 66 | 1009.2 |
| 20260505003034 | 77 | 197 | 9.0 | 17.0 | 0.00 | 0.00 | 0.00 | 63 | 1009.1 |
| 20260505001533 | 78 | 163 | 9.0 | 17.0 | 0.00 | 0.00 | 0.00 | 62 | 1009.1 |
| 20260505000047 | 78 | 167 | 7.0 | 19.0 | 0.00 | 0.00 | 0.00 | 61 | 1009.2 |
| 20260504234530 | 78 | 175 | 9.0 | 21.0 | 0.00 | 0.00 | 0.00 | 60 | 1009.3 |
| 20260504233027 | 78 | 198 | 9.0 | 18.0 | 0.00 | 0.00 | 0.00 | 60 | 1009.8 |
| 20260504231530 | 79 | 219 | 9.0 | 23.0 | 0.00 | 0.00 | 0.00 | 59 | 1009.7 |
| 20260504230025 | 78 | 153 | 8.0 | 19.0 | 0.00 | 0.00 | 0.00 | 60 | 1009.9 |
| 20260504224524 | 79 | 173 | 10.0 | 20.0 | 0.00 | 0.00 | 0.00 | 59 | 1010.2 |
| 20260504223023 | 80 | 202 | 10.0 | 22.0 | 0.00 | 0.00 | 0.00 | 57 | 1010.2 |
| 20260504221520 | 79 | 190 | 11.0 | 21.0 | 0.00 | 0.00 | 0.00 | 60 | 1010.4 |
| 20260504220019 | 79 | 210 | 9.0 | 20.0 | 0.00 | 0.00 | 0.00 | 59 | 1010.4 |
| 20260504214519 | 79 | 189 | 13.0 | 21.0 | 0.00 | 0.00 | 0.00 | 59 | 1010.5 |
| 20260504213017 | 79 | 120 | 9.0 | 18.0 | 0.00 | 0.00 | 0.00 | 59 | 1010.4 |
| 20260504211514 | 79 | 157 | 9.0 | 21.0 | 0.00 | 0.00 | 0.00 | 59 | 1010.8 |
| 20260504210013 | 80 | 175 | 9.0 | 22.0 | 0.00 | 0.00 | 0.00 | 57 | 1011.0 |
| 20260504204510 | 80 | 145 | 9.0 | 17.0 | 0.00 | 0.00 | 0.00 | 57 | 1011.4 |
| 20260504203008 | 80 | 220 | 10.0 | 19.0 | 0.00 | 0.00 | 0.00 | 56 | 1011.5 |
| 20260504201506 | 80 | 227 | 9.0 | 19.0 | 0.00 | 0.00 | 0.00 | 57 | 1011.9 |
| 20260504200004 | 80 | 183 | 5.0 | 19.0 | 0.00 | 0.00 | 0.00 | 57 | 1012.0 |
| 20260504194501 | 79 | 172 | 8.0 | 17.0 | 0.00 | 0.00 | 0.00 | 59 | 1012.4 |
| 20260504193059 | 78 | 186 | 8.0 | 20.0 | 0.00 | 0.00 | 0.00 | 59 | 1012.5 |
| 20260504191607 | 78 | 193 | 10.0 | 17.0 | 0.00 | 0.00 | 0.00 | 59 | 1012.8 |
| 20260504190112 | 77 | 207 | 7.0 | 21.0 | 0.00 | 0.00 | 0.00 | 61 | 1013.0 |
| 20260504184552 | 77 | 153 | 8.0 | 18.0 | 0.00 | 0.00 | 0.00 | 60 | 1013.1 |
| 20260504183049 | 77 | 188 | 8.0 | 19.0 | 0.00 | 0.00 | 0.00 | 61 | 1013.4 |
| 20260504181554 | 76 | 211 | 10.0 | 18.0 | 0.00 | 0.00 | 0.00 | 62 | 1013.6 |
| 20260504180045 | 76 | 205 | 10.0 | 19.0 | 0.00 | 0.00 | 0.00 | 62 | 1013.7 |
| 20260504174540 | 74 | 248 | 9.0 | 19.0 | 0.00 | 0.00 | 0.00 | 65 | 1013.9 |
| 20260504173038 | 74 | 226 | 7.0 | 16.0 | 0.00 | 0.00 | 0.00 | 67 | 1014.4 |
| 20260504171533 | 73 | 197 | 8.0 | 16.0 | 0.00 | 0.00 | 0.00 | 68 | 1014.6 |
| 20260504081530 | 60 | 193 | 4.0 | 9.0 | 0.00 | 0.00 | 0.00 | 79 | 1015.7 |
| 20260504050106 | 62 | 198 | 4.0 | 11.0 | 0.00 | 0.00 | 0.00 | 67 | 1018.1 |
| 20260504044601 | 63 | 166 | 3.0 | 9.0 | 0.00 | 0.00 | 0.00 | 66 | 1017.9 |
| 20260504043057 | 63 | 160 | 3.0 | 9.0 | 0.00 | 0.00 | 0.00 | 64 | 1018.1 |
| 20260504041600 | 64 | 162 | 5.0 | 10.0 | 0.00 | 0.00 | 0.00 | 62 | 1018.2 |
| 20260504040055 | 64 | 177 | 4.0 | 8.0 | 0.00 | 0.00 | 0.00 | 60 | 1018.2 |
| 20260504034554 | 64 | 190 | 4.0 | 8.0 | 0.00 | 0.00 | 0.00 | 58 | 1018.2 |
| 20260504033054 | 65 | 124 | 4.0 | 10.0 | 0.00 | 0.00 | 0.00 | 55 | 1018.2 |
| 20260504031554 | 65 | 178 | 2.0 | 5.0 | 0.00 | 0.00 | 0.00 | 54 | 1018.1 |
| 20260504030054 | 66 | 176 | 2.0 | 4.0 | 0.00 | 0.00 | 0.00 | 52 | 1018.0 |